Weather History for KTIK - March, 2013

Change the Weather History Date:

Thursday, March 7, 2013

  Actual Average Record
Temperature  
Mean Temperature 54 °F -  
Max Temperature 70 °F 55 °F 77 °F (2006)
Min Temperature 39 °F 33 °F 20 °F (2008)
Degree Days  
Heating Degree Days 10    
Growing Degree Days 4 (Base 50)    
Moisture  
Dew Point 24 °F    
Average Humidity 32    
Maximum Humidity 46    
Minimum Humidity 19    
Precipitation  
Precipitation 0.00 in - - ()
Sea Level Pressure  
Sea Level Pressure 30.11 in    
Wind  
Wind Speed 13 mph (SSE)    
Max Wind Speed 28 mph    
Max Gust Speed 36 mph    
Visibility 10 miles    
Events      
Averages and records for this station are not official NWS values.
T = Trace of Precipitation, MM = Missing Value Source: NWS Daily Summary

Daily Weather History Graph

Daily Weather History Graph

Search for Another Location

Airport or City:

Trip Planner

Search our weather history database for the weather conditions in past years. The results will help you decide how hot, cold, wet, or windy it might be!

Date:

Astronomy

Mar. 07, 2013 Rise Set
Actual Time 6:50 AM CST 6:30 PM CST
Civil Twilight 6:25 AM CST 6:55 PM CST
Nautical Twilight 5:56 AM CST 7:25 PM CST
Astronomical Twilight 5:26 AM CST 7:54 PM CST
Moon 3:44 AM CST (3/7) 2:26 PM CST (3/7)
Length of Visible Light 12h 30m
Length of Day
11h 39m
Waning Crescent, 20% of the Moon is Illuminated
Mar 7
Waning Crescent
Mar 11
New
Mar 19
First Quarter
Mar 27
Full
Apr 2
Last Quarter

Hourly Weather History & Observations

Time (CST) Temp. Windchill Dew Point Humidity Pressure Visibility Wind Dir Wind Speed Gust Speed Precip Events Conditions
12:55 AM 43.9 °F 39.9 °F 19.8 °F 38% 30.16 in 10.0 mi SE 6.9 mph - N/A   Partly Cloudy
12:58 AM 43.9 °F 39.9 °F 19.8 °F 38% 30.17 in 10.0 mi SE 6.9 mph - N/A   Partly Cloudy
1:58 AM 41.0 °F 37.1 °F 19.9 °F 43% 30.19 in 10.0 mi ESE 5.8 mph - N/A   Clear
2:58 AM 40.5 °F 34.6 °F 19.8 °F 44% 30.17 in 10.0 mi SE 9.2 mph - N/A   Clear
3:58 AM 40.5 °F 34.1 °F 19.6 °F 43% 30.17 in 10.0 mi SE 10.4 mph - N/A   Clear
4:58 AM 39.6 °F 33.0 °F 19.9 °F 45% 30.14 in 10.0 mi SE 10.4 mph - N/A   Clear
5:58 AM 39.2 °F 32.0 °F 19.8 °F 46% 30.15 in 10.0 mi SE 11.5 mph - N/A   Clear
6:58 AM 39.2 °F 32.0 °F 19.8 °F 46% 30.16 in 10.0 mi SE 11.5 mph - N/A   Clear
7:58 AM 42.6 °F 36.3 °F 19.8 °F 40% 30.15 in 10.0 mi SE 11.5 mph - N/A   Clear
8:58 AM 48.4 °F - 21.4 °F 35% 30.15 in 10.0 mi South 17.3 mph 21.9 mph N/A   Clear
9:58 AM 55.8 °F - 21.9 °F 27% 30.14 in 10.0 mi South 20.7 mph 28.8 mph N/A   Clear
10:58 AM 58.1 °F - 23.4 °F 26% 30.13 in 10.0 mi South 25.3 mph 29.9 mph N/A   Clear
11:58 AM 61.9 °F - 23.4 °F 23% 30.11 in 10.0 mi South 27.6 mph 35.7 mph N/A   Clear
12:58 PM 66.0 °F - 24.6 °F 21% 30.10 in 10.0 mi South 23.0 mph 32.2 mph N/A   Clear
1:58 PM 68.9 °F - 25.2 °F 19% 30.06 in 10.0 mi South 23.0 mph 33.4 mph N/A   Clear
2:58 PM 69.6 °F - 25.0 °F 19% 30.04 in 10.0 mi South 18.4 mph 25.3 mph N/A   Clear
3:58 PM 70.0 °F - 26.4 °F 20% 30.05 in 10.0 mi South 20.7 mph 25.3 mph N/A   Clear
4:58 PM 68.5 °F - 27.5 °F 22% 30.04 in 10.0 mi SSE 13.8 mph 24.2 mph N/A   Clear
5:58 PM 66.0 °F - 27.3 °F 23% 30.05 in 10.0 mi South 16.1 mph 25.3 mph N/A   Clear
6:58 PM 61.3 °F - 28.4 °F 29% 30.06 in 10.0 mi SSE 10.4 mph - N/A   Clear
7:58 PM 59.2 °F - 27.3 °F 30% 30.07 in 10.0 mi SSE 12.7 mph - N/A   Clear
8:58 PM 58.6 °F - 28.6 °F 32% 30.07 in 10.0 mi South 18.4 mph 25.3 mph N/A   Clear
9:58 PM 58.1 °F - 28.4 °F 32% 30.07 in 10.0 mi South 17.3 mph 24.2 mph N/A   Scattered Clouds
10:58 PM 57.4 °F - 28.0 °F 33% 30.07 in 10.0 mi South 18.4 mph 25.3 mph N/A   Clear
11:58 PM 56.7 °F - 28.2 °F 34% 30.07 in 10.0 mi South 15.0 mph - N/A   Clear